Location: Newark
(45.7425°N, 0.7617°W)
Time: 21:08:17
(UTC+00:00)

N. Korean satellite - Pass Details

Date: 26 January 2020
Orbit: 456 x 505 km, 97.2° (Epoch: 23 February)

Event Time Altitude Azimuth Distance (km) Brightness Sun altitude
Rises 05:17:13 0° 22° (NNE) 2,541 10.5 -23.4°
Reaches altitude 10° 05:19:29 10° 35° (NE) 1,666 9.6 -23.0°
Maximum altitude 05:22:37 28° 96° (E) 933 8.7 -22.5°
Drops below altitude 10° 05:25:47 10° 157° (SSE) 1,678 9.6 -21.9°
Sets 05:28:04 0° 169° (S) 2,562 10.4 -21.5°
